Weather in Yuzhny

Russia / Novosibirsk Oblast     54°39′09″N   83°04′46″E
temp.,
°C
wind,
m/s
gust,
m/s
humid.,
%
clouds,
%
prec.,
mm/h
press.,
hPa
HPBL,
m
7 may, fri
fri701:00+13sse3368100 0.0 100120
04:00+11wnw5980100 0.0 100288
07:00+11nw6983100 0.0 1006168
10:00+9nw5780100 0.0 1009215
13:00+10wnw71151100 0.0 1011443
16:00+10wnw61049100 0.0 1012496
19:00+10wnw465797 0.0 1014191
22:00+8w46630 0.0 101660
8 may, sat
sat801:00+6wsw46730 0.0 101864
04:00+5w34750 0.0 101943
07:00+5wsw34770 0.0 102047
10:00+7sw58705 0.0 1020143
13:00+10w6115962 0.0 1018493
16:00+11wnw4663100 0.0 1017168
19:00+11wsw466663 0.0 101785
22:00+9wsw4672100 0.0 101661
9 may, sun
sun901:00+9wnw1276100 0.0 101617
04:00+8n348399 0.0 101737
07:00+5nne46830 0.0 101976
10:00+6nne45705 0.0 1020182
13:00+8n34614 0.0 1020287
16:00+9nne45520 0.0 1019373
19:00+8ne56541 0.0 1020356
22:00+7ene34655 0.0 102152
10 may, mon
mon1001:00+6ene6106783 0.0 1020135
04:00+4ene597562 0.0 1020130
07:00+4ene510786 0.0 1020227
10:00+6ene696331 0.0 1019308
13:00+9ne8125291 0.0 1016427
16:00+10ne7104941 0.0 1015551
19:00+10ne7115498 0.0 1014447
22:00+8ne7125983 0.0 1014215
11 may, tue
tue1101:00+7ne611701 0.0 1015170
04:00+5ne610735 0.0 1015155
07:00+5nne698091 0.0 1015191
10:00+7ne610685 0.0 1015347
13:00+10ne7105567 0.0 1014549
16:00+10ne6951100 0.0 1014624
19:00+10nne5756100 0.0 1014205
22:00+9nne6962100 0.0 1015102